Meteo pe oră la Bolshie Galashki

Astăzi, 8 Mai, Sâmbătă

Timp Temperatura Precipitaţii Vânt Presiune Umiditate
00:00 +12°C° 0 mm 1 m/s 728 mmHg 73%
01:00 +11°C° 0 mm 1 m/s 728 mmHg 75%
02:00 +10°C° 0 mm 1 m/s 728 mmHg 79%
03:00 +10°C° 0 mm 1 m/s 728 mmHg 83%
04:00 +9°C° 0 mm 1 m/s 728 mmHg 86%
05:00 +11°C° 0 mm 1 m/s 728 mmHg 79%
06:00 +12°C° 0 mm 1 m/s 728 mmHg 72%
07:00 +13°C° 0 mm 0 m/s 728 mmHg 65%
08:00 +16°C° 0 mm 1 m/s 729 mmHg 57%
09:00 +18°C° 0 mm 1 m/s 729 mmHg 49%
10:00 +20°C° 0 mm 1 m/s 729 mmHg 41%
11:00 +20°C° 0 mm 1 m/s 729 mmHg 41%
12:00 +20°C° 0 mm 1 m/s 728 mmHg 41%
13:00 +19°C° 0 mm 1 m/s 728 mmHg 42%
14:00 +19°C° 0 mm 1 m/s 728 mmHg 43%
15:00 +19°C° 0 mm 1 m/s 728 mmHg 44%
16:00 +19°C° 0 mm 1 m/s 728 mmHg 45%
17:00 +18°C° 0 mm 1 m/s 728 mmHg 51%
18:00 +16°C° 0 mm 1 m/s 728 mmHg 57%
19:00 +14°C° 0 mm 0 m/s 728 mmHg 62%
20:00 +13°C° 0 mm 0 m/s 728 mmHg 65%
21:00 +12°C° 0 mm 0 m/s 728 mmHg 68%
22:00 +11°C° 0 mm 0 m/s 728 mmHg 70%
23:00 +10°C° 0 mm 0 m/s 728 mmHg 71%

Mâine, 9 Mai, Duminică

Timp Temperatura Precipitaţii Vânt Presiune Umiditate
00:00 +10°C° 0 mm 0 m/s 728 mmHg 73%
01:00 +10°C° 0 mm 0 m/s 728 mmHg 74%
02:00 +10°C° 0 mm 1 m/s 728 mmHg 76%
03:00 +10°C° 0 mm 1 m/s 728 mmHg 78%
04:00 +10°C° 0 mm 1 m/s 728 mmHg 79%
05:00 +11°C° 0 mm 1 m/s 729 mmHg 75%
06:00 +12°C° 0 mm 1 m/s 729 mmHg 70%
07:00 +14°C° 0 mm 2 m/s 729 mmHg 66%
08:00 +15°C° 0 mm 2 m/s 729 mmHg 58%
09:00 +17°C° 0 mm 2 m/s 729 mmHg 51%
10:00 +19°C° 0 mm 2 m/s 729 mmHg 43%
11:00 +19°C° 0 mm 2 m/s 729 mmHg 41%
12:00 +20°C° 0 mm 2 m/s 729 mmHg 38%
13:00 +20°C° 0 mm 2 m/s 729 mmHg 36%
14:00 +20°C° 0 mm 2 m/s 729 mmHg 34%
15:00 +20°C° 0 mm 2 m/s 729 mmHg 33%
16:00 +20°C° 0 mm 2 m/s 729 mmHg 31%
17:00 +19°C° 0 mm 2 m/s 729 mmHg 39%
18:00 +17°C° 0 mm 2 m/s 729 mmHg 47%
19:00 +16°C° 0 mm 2 m/s 729 mmHg 54%
20:00 +14°C° 0 mm 2 m/s 730 mmHg 58%
21:00 +13°C° 0 mm 1 m/s 730 mmHg 62%
22:00 +12°C° 0 mm 1 m/s 730 mmHg 67%
23:00 +11°C° 0 mm 1 m/s 730 mmHg 69%

Poimâine, 10 Mai, Luni

Timp Temperatura Precipitaţii Vânt Presiune Umiditate
00:00 +11°C° 0 mm 1 m/s 730 mmHg 72%
01:00 +11°C° 0 mm 1 m/s 730 mmHg 74%
02:00 +10°C° 0 mm 1 m/s 730 mmHg 75%
03:00 +10°C° 0 mm 1 m/s 731 mmHg 76%
04:00 +9°C° 0 mm 0 m/s 731 mmHg 77%
05:00 +12°C° 0 mm 1 m/s 731 mmHg 69%
06:00 +14°C° 0 mm 1 m/s 732 mmHg 61%
07:00 +16°C° 0 mm 2 m/s 732 mmHg 53%
08:00 +17°C° 0 mm 2 m/s 732 mmHg 48%
09:00 +19°C° 0 mm 2 m/s 732 mmHg 43%
10:00 +20°C° 0 mm 2 m/s 733 mmHg 38%
11:00 +21°C° 0 mm 2 m/s 732 mmHg 36%
12:00 +21°C° 0 mm 2 m/s 732 mmHg 34%
13:00 +22°C° 0 mm 3 m/s 732 mmHg 32%
14:00 +23°C° 0 mm 2 m/s 732 mmHg 33%
15:00 +23°C° 0 mm 2 m/s 732 mmHg 34%
16:00 +21°C° 0 mm 2 m/s 732 mmHg 35%
17:00 +20°C° 0 mm 2 m/s 732 mmHg 40%
18:00 +19°C° 0 mm 2 m/s 732 mmHg 45%
19:00 +18°C° 0 mm 2 m/s 732 mmHg 50%
20:00 +17°C° 0 mm 2 m/s 732 mmHg 52%
21:00 +16°C° 0 mm 2 m/s 732 mmHg 54%
22:00 +15°C° 0 mm 2 m/s 732 mmHg 57%
23:00 +15°C° 0 mm 1 m/s 732 mmHg 60%

11 Mai, Marţi

Timp Temperatura Precipitaţii Vânt Presiune Umiditate
00:00 +14°C° 0 mm 1 m/s 732 mmHg 63%
01:00 +14°C° 0 mm 1 m/s 732 mmHg 66%
02:00 +13°C° 0.1 mm 1 m/s 732 mmHg 72%
03:00 +13°C° 0.1 mm 1 m/s 732 mmHg 77%
04:00 +13°C° 0.1 mm 1 m/s 732 mmHg 83%
05:00 +12°C° 0.4 mm 2 m/s 733 mmHg 85%
06:00 +12°C° 0.4 mm 2 m/s 733 mmHg 87%
07:00 +11°C° 0.4 mm 3 m/s 733 mmHg 89%
08:00 +12°C° 0 mm 3 m/s 733 mmHg 78%
09:00 +13°C° 0 mm 4 m/s 734 mmHg 67%
10:00 +14°C° 0 mm 4 m/s 734 mmHg 56%
11:00 +14°C° 0 mm 4 m/s 734 mmHg 53%
12:00 +14°C° 0 mm 5 m/s 734 mmHg 50%
13:00 +14°C° 0 mm 5 m/s 734 mmHg 47%
14:00 +14°C° 0 mm 4 m/s 734 mmHg 45%
15:00 +14°C° 0 mm 4 m/s 734 mmHg 43%
16:00 +14°C° 0 mm 4 m/s 735 mmHg 42%
17:00 +14°C° 0 mm 3 m/s 735 mmHg 43%
18:00 +13°C° 0 mm 3 m/s 735 mmHg 45%
19:00 +12°C° 0 mm 3 m/s 735 mmHg 47%
20:00 +12°C° 0 mm 2 m/s 735 mmHg 52%
21:00 +9°C° 0 mm 2 m/s 735 mmHg 57%
22:00 +9°C° 0 mm 1 m/s 735 mmHg 63%
23:00 +8°C° 0 mm 1 m/s 736 mmHg 64%

12 Mai, Miercuri

Timp Temperatura Precipitaţii Vânt Presiune Umiditate
00:00 +8°C° 0 mm 1 m/s 736 mmHg 66%
01:00 +7°C° 0 mm 1 m/s 736 mmHg 68%
02:00 +7°C° 0 mm 1 m/s 736 mmHg 68%
03:00 +7°C° 0 mm 1 m/s 736 mmHg 68%
04:00 +7°C° 0 mm 1 m/s 736 mmHg 69%
05:00 +9°C° 0 mm 1 m/s 737 mmHg 63%
06:00 +10°C° 0 mm 1 m/s 737 mmHg 57%
07:00 +12°C° 0 mm 1 m/s 737 mmHg 52%
08:00 +12°C° 0 mm 1 m/s 737 mmHg 52%
09:00 +12°C° 0 mm 2 m/s 737 mmHg 51%
10:00 +13°C° 0 mm 2 m/s 736 mmHg 51%
11:00 +12°C° 0 mm 2 m/s 736 mmHg 56%
12:00 +12°C° 0 mm 2 m/s 736 mmHg 60%
13:00 +10°C° 0 mm 2 m/s 736 mmHg 65%
14:00 +12°C° 0 mm 2 m/s 736 mmHg 66%
15:00 +12°C° 0 mm 3 m/s 736 mmHg 68%
16:00 +13°C° 0 mm 3 m/s 736 mmHg 69%
17:00 +13°C° 0 mm 3 m/s 736 mmHg 72%
18:00 +14°C° 0 mm 2 m/s 736 mmHg 75%
19:00 +13°C° 0 mm 2 m/s 736 mmHg 77%
20:00 +12°C° 0 mm 1 m/s 736 mmHg 82%
21:00 +11°C° 0 mm 1 m/s 736 mmHg 87%
22:00 +10°C° 0 mm 1 m/s 736 mmHg 91%
23:00 +9°C° 0 mm 1 m/s 736 mmHg 92%

13 Mai, Joi

Timp Temperatura Precipitaţii Vânt Presiune Umiditate
00:00 +8°C° 0 mm 0 m/s 736 mmHg 94%
01:00 +7°C° 0 mm 0 m/s 736 mmHg 95%
02:00 +7°C° 0 mm 0 m/s 736 mmHg 95%
03:00 +7°C° 0 mm 0 m/s 736 mmHg 95%
04:00 +6°C° 0 mm 0 m/s 736 mmHg 95%
05:00 +8°C° 0 mm 0 m/s 736 mmHg 88%
06:00 +10°C° 0 mm 0 m/s 736 mmHg 80%
07:00 +12°C° 0 mm 0 m/s 736 mmHg 73%
08:00 +14°C° 0 mm 0 m/s 736 mmHg 66%
09:00 +18°C° 0 mm 1 m/s 736 mmHg 59%
10:00 +20°C° 0 mm 1 m/s 736 mmHg 52%
11:00 +21°C° 0 mm 1 m/s 736 mmHg 48%
12:00 +22°C° 0 mm 1 m/s 736 mmHg 44%
13:00 +23°C° 0 mm 2 m/s 736 mmHg 41%
14:00 +23°C° 0 mm 2 m/s 735 mmHg 41%
15:00 +22°C° 0 mm 3 m/s 735 mmHg 41%
16:00 +22°C° 0 mm 3 m/s 735 mmHg 42%
17:00 +21°C° 0 mm 2 m/s 735 mmHg 48%
18:00 +20°C° 0 mm 2 m/s 735 mmHg 54%
19:00 +19°C° 0 mm 1 m/s 735 mmHg 60%
20:00 +18°C° 0 mm 1 m/s 735 mmHg 62%
21:00 +16°C° 0 mm 1 m/s 735 mmHg 65%
22:00 +14°C° 0 mm 0 m/s 735 mmHg 67%
23:00 +14°C° 0 mm 0 m/s 735 mmHg 66%
Arată mai mult

Formular de consimțământ

Meteoprog și furnizorii noștri de servicii pot stoca și accesa date personale, precum cookies, identificatori de dispozitiv sau alte tehnologii similare pe dispozitivul dumneavoastră și procesa astfel de date pentru a personaliza conținutul și reclamele, dar și pentru a oferi caracteristici de social media și pentru a analiza traficul.

  • Stocarea și/sau accesarea informațiilor pe dispozitivul dumneavoastră

    Cookies, identificatori de dispozitiv sau alte informații pot fi stocate sau accesate pe dispozitiv în scopurile indicate mai sus.

  • Reclame și conținut personalizat, evaluarea reclamelor și a conținutului, informații despre audiențe și dezvoltarea produselor

    Reclamele și conținutul pot fi personalizate pe baza unui profil. Pot fi adăugate date suplimentare pentru a personaliza mai bine reclamele și conținutul. Performanța reclamelor și conținutului poate fi măsurată. Pot fi obținute informații despre utilizatorii care au văzut reclamele și conținutul. Aceste date pot fi utilizate pentru a dezvolta sau îmbunătăți experiența utilizatorilor, sistemele și software-ul.

Dând clic pe ‘Sunt de acord’, permiteți utilizarea cookie-urilor menționate, a identificatorilor de dispozitiv, balizelor web sau altor tehnologii similare. Setările pot fi modificate din browser-ul dispozitivului dumneavoastră.

În anumite scopuri, interesele legitime pot prima asupra consimțământului. Puteți citi mai multe informații în acest sens în Politica privind Confidențialitatea Datelor și Cookie.